• Em Portugal
  • Lista de países
  • Para 7 dias
  • Temperatura da água
  • Mapas de satélite
  • Mapa do tempo
  • Widgets de tempo
  • user-avatar
    Iniciar Sessão

    Previsão horária em Santa Fé

    Hoje, 18 Fevereiro, Domingo

    Tempo Temperatura Precipitação Vento Pressão Humidade
    00:00 +30°C° 0 mm 1 m/s 754 mmHg 43%
    01:00 +30°C° 0 mm 2 m/s 754 mmHg 44%
    02:00 +30°C° 0 mm 2 m/s 754 mmHg 46%
    03:00 +29°C° 0 mm 2 m/s 754 mmHg 50%
    04:00 +28°C° 0 mm 2 m/s 753 mmHg 55%
    05:00 +28°C° 0 mm 2 m/s 753 mmHg 59%
    06:00 +28°C° 0 mm 3 m/s 753 mmHg 58%
    07:00 +29°C° 0 mm 3 m/s 754 mmHg 56%
    08:00 +30°C° 0 mm 4 m/s 754 mmHg 55%
    09:00 +34°C° 0 mm 4 m/s 753 mmHg 47%
    10:00 +36°C° 0 mm 4 m/s 753 mmHg 40%
    11:00 +38°C° 0 mm 4 m/s 752 mmHg 32%
    12:00 +38°C° 0 mm 4 m/s 752 mmHg 33%
    13:00 +38°C° 0 mm 4 m/s 751 mmHg 33%
    14:00 +38°C° 0 mm 3 m/s 750 mmHg 33%
    15:00 +37°C° 0,2 mm 3 m/s 750 mmHg 37%
    16:00 +36°C° 0,2 mm 3 m/s 750 mmHg 40%
    17:00 +35°C° 0,2 mm 3 m/s 749 mmHg 44%
    18:00 +32°C° 0,4 mm 2 m/s 749 mmHg 51%
    19:00 +31°C° 0,4 mm 2 m/s 750 mmHg 57%
    20:00 +29°C° 0,4 mm 1 m/s 750 mmHg 64%
    21:00 +29°C° 0,1 mm 2 m/s 750 mmHg 66%
    22:00 +28°C° 0,1 mm 2 m/s 750 mmHg 69%
    23:00 +27°C° 0,1 mm 3 m/s 750 mmHg 72%

    Amanhã, 19 Fevereiro, Segunda-feira

    Tempo Temperatura Precipitação Vento Pressão Humidade
    00:00 +27°C° 2,1 mm 3 m/s 750 mmHg 77%
    01:00 +26°C° 2,1 mm 2 m/s 750 mmHg 83%
    02:00 +25°C° 2,1 mm 2 m/s 750 mmHg 88%
    03:00 +25°C° 0,9 mm 2 m/s 750 mmHg 88%
    04:00 +25°C° 0,9 mm 2 m/s 750 mmHg 88%
    05:00 +25°C° 0,9 mm 2 m/s 750 mmHg 88%
    06:00 +25°C° 0 mm 2 m/s 751 mmHg 85%
    07:00 +26°C° 0 mm 2 m/s 751 mmHg 81%
    08:00 +27°C° 0 mm 2 m/s 751 mmHg 78%
    09:00 +29°C° 1,3 mm 2 m/s 751 mmHg 69%
    10:00 +31°C° 1,3 mm 1 m/s 751 mmHg 61%
    11:00 +33°C° 1,3 mm 1 m/s 751 mmHg 52%
    12:00 +34°C° 0 mm 1 m/s 750 mmHg 47%
    13:00 +35°C° 0 mm 1 m/s 750 mmHg 42%
    14:00 +37°C° 0 mm 2 m/s 749 mmHg 36%
    15:00 +36°C° 0 mm 1 m/s 749 mmHg 37%
    16:00 +36°C° 0 mm 1 m/s 749 mmHg 38%
    17:00 +35°C° 0 mm 1 m/s 749 mmHg 38%
    18:00 +34°C° 0 mm 1 m/s 749 mmHg 42%
    19:00 +32°C° 0 mm 1 m/s 749 mmHg 46%
    20:00 +30°C° 0 mm 1 m/s 750 mmHg 50%
    21:00 +30°C° 0 mm 1 m/s 750 mmHg 52%
    22:00 +29°C° 0 mm 1 m/s 750 mmHg 54%
    23:00 +29°C° 0 mm 1 m/s 751 mmHg 56%

    Depois de amanhã, 20 Fevereiro, Terça-feira

    Tempo Temperatura Precipitação Vento Pressão Humidade
    00:00 +28°C° 0 mm 1 m/s 751 mmHg 59%
    01:00 +28°C° 0 mm 2 m/s 751 mmHg 62%
    02:00 +27°C° 0 mm 2 m/s 750 mmHg 66%
    03:00 +26°C° 0,1 mm 2 m/s 751 mmHg 69%
    04:00 +26°C° 0,1 mm 1 m/s 751 mmHg 73%
    05:00 +25°C° 0,1 mm 1 m/s 751 mmHg 76%
    06:00 +26°C° 0,2 mm 1 m/s 751 mmHg 73%
    07:00 +28°C° 0,2 mm 1 m/s 752 mmHg 70%
    08:00 +29°C° 0,2 mm 1 m/s 753 mmHg 67%
    09:00 +31°C° 0 mm 2 m/s 753 mmHg 57%
    10:00 +35°C° 0 mm 2 m/s 752 mmHg 47%
    11:00 +37°C° 0 mm 3 m/s 752 mmHg 37%
    12:00 +37°C° 0 mm 3 m/s 752 mmHg 35%
    13:00 +38°C° 0 mm 2 m/s 752 mmHg 34%
    14:00 +38°C° 0 mm 2 m/s 751 mmHg 32%
    15:00 +37°C° 0,6 mm 2 m/s 751 mmHg 35%
    16:00 +36°C° 0,6 mm 2 m/s 751 mmHg 39%
    17:00 +35°C° 0,6 mm 3 m/s 751 mmHg 42%
    18:00 +33°C° 4 mm 4 m/s 752 mmHg 55%
    19:00 +29°C° 4 mm 4 m/s 752 mmHg 68%
    20:00 +26°C° 4 mm 5 m/s 753 mmHg 81%
    21:00 +26°C° 1,8 mm 6 m/s 754 mmHg 82%
    22:00 +24°C° 1,8 mm 6 m/s 755 mmHg 82%
    23:00 +24°C° 1,8 mm 7 m/s 756 mmHg 83%

    21 Fevereiro, Quarta-feira

    Tempo Temperatura Precipitação Vento Pressão Humidade
    00:00 +23°C° 0,9 mm 6 m/s 756 mmHg 85%
    01:00 +23°C° 0,9 mm 5 m/s 756 mmHg 86%
    02:00 +23°C° 0,9 mm 4 m/s 756 mmHg 88%
    03:00 +23°C° 0 mm 4 m/s 756 mmHg 89%
    04:00 +24°C° 0 mm 3 m/s 756 mmHg 90%
    05:00 +22°C° 0 mm 3 m/s 757 mmHg 91%
    06:00 +24°C° 0 mm 3 m/s 757 mmHg 87%
    07:00 +25°C° 0 mm 3 m/s 758 mmHg 84%
    08:00 +26°C° 0 mm 4 m/s 759 mmHg 80%
    09:00 +28°C° 0 mm 3 m/s 759 mmHg 68%
    10:00 +30°C° 0 mm 3 m/s 758 mmHg 56%
    11:00 +33°C° 0 mm 3 m/s 758 mmHg 44%
    12:00 +35°C° 0 mm 3 m/s 758 mmHg 40%
    13:00 +36°C° 0 mm 3 m/s 757 mmHg 35%
    14:00 +37°C° 0 mm 3 m/s 756 mmHg 31%
    15:00 +37°C° 0 mm 4 m/s 756 mmHg 32%
    16:00 +36°C° 0 mm 4 m/s 755 mmHg 33%
    17:00 +36°C° 0 mm 4 m/s 755 mmHg 34%
    18:00 +34°C° 0 mm 4 m/s 755 mmHg 37%
    19:00 +32°C° 0 mm 4 m/s 756 mmHg 40%
    20:00 +29°C° 0 mm 3 m/s 756 mmHg 43%
    21:00 +28°C° 0 mm 4 m/s 757 mmHg 43%
    22:00 +28°C° 0 mm 4 m/s 757 mmHg 42%
    23:00 +27°C° 0 mm 4 m/s 757 mmHg 42%

    22 Fevereiro, Quinta-feira

    Tempo Temperatura Precipitação Vento Pressão Humidade
    00:00 +26°C° 0 mm 4 m/s 757 mmHg 42%
    01:00 +26°C° 0 mm 4 m/s 757 mmHg 42%
    02:00 +25°C° 0 mm 4 m/s 758 mmHg 42%
    03:00 +23°C° 0 mm 4 m/s 758 mmHg 44%
    04:00 +24°C° 0 mm 3 m/s 758 mmHg 47%
    05:00 +22°C° 0 mm 3 m/s 758 mmHg 49%
    06:00 +24°C° 0 mm 3 m/s 759 mmHg 48%
    07:00 +25°C° 0 mm 4 m/s 759 mmHg 48%
    08:00 +27°C° 0 mm 4 m/s 759 mmHg 47%
    09:00 +29°C° 0 mm 4 m/s 759 mmHg 41%
    10:00 +31°C° 0 mm 3 m/s 759 mmHg 36%
    11:00 +35°C° 0 mm 3 m/s 759 mmHg 30%
    12:00 +36°C° 0 mm 3 m/s 758 mmHg 27%
    13:00 +37°C° 0 mm 3 m/s 757 mmHg 23%
    14:00 +38°C° 0 mm 2 m/s 757 mmHg 20%
    15:00 +38°C° 0 mm 3 m/s 756 mmHg 20%
    16:00 +37°C° 0 mm 3 m/s 756 mmHg 19%
    17:00 +37°C° 0 mm 3 m/s 755 mmHg 19%
    18:00 +35°C° 0 mm 3 m/s 755 mmHg 21%
    19:00 +32°C° 0 mm 4 m/s 756 mmHg 24%
    20:00 +29°C° 0 mm 4 m/s 756 mmHg 26%
    21:00 +28°C° 0 mm 4 m/s 756 mmHg 27%
    22:00 +26°C° 0 mm 3 m/s 757 mmHg 29%
    23:00 +25°C° 0 mm 3 m/s 757 mmHg 30%

    23 Fevereiro, Sexta-feira

    Tempo Temperatura Precipitação Vento Pressão Humidade
    00:00 +25°C° 0 mm 3 m/s 757 mmHg 31%
    01:00 +24°C° 0 mm 3 m/s 757 mmHg 33%
    02:00 +22°C° 0 mm 3 m/s 756 mmHg 35%
    03:00 +22°C° 0 mm 3 m/s 757 mmHg 37%
    04:00 +23°C° 0 mm 2 m/s 757 mmHg 39%
    05:00 +21°C° 0 mm 2 m/s 757 mmHg 41%
    06:00 +24°C° 0 mm 3 m/s 757 mmHg 40%
    07:00 +25°C° 0 mm 3 m/s 758 mmHg 40%
    08:00 +27°C° 0 mm 3 m/s 758 mmHg 39%
    09:00 +29°C° 0 mm 3 m/s 758 mmHg 34%
    10:00 +32°C° 0 mm 2 m/s 758 mmHg 30%
    11:00 +35°C° 0 mm 2 m/s 758 mmHg 25%
    12:00 +36°C° 0 mm 2 m/s 757 mmHg 23%
    13:00 +37°C° 0 mm 2 m/s 757 mmHg 21%
    14:00 +38°C° 0 mm 2 m/s 756 mmHg 19%
    15:00 +38°C° 0 mm 2 m/s 756 mmHg 20%
    16:00 +37°C° 0 mm 3 m/s 756 mmHg 20%
    17:00 +37°C° 0 mm 3 m/s 755 mmHg 21%
    18:00 +34°C° 0 mm 3 m/s 756 mmHg 24%
    19:00 +31°C° 0 mm 2 m/s 756 mmHg 28%
    20:00 +29°C° 0 mm 2 m/s 757 mmHg 31%
    21:00 +28°C° 0 mm 2 m/s 757 mmHg 33%
    22:00 +27°C° 0 mm 2 m/s 757 mmHg 36%
    23:00 +26°C° 0 mm 2 m/s 758 mmHg 38%
    Mostrar mais